Find Kosmos-1753

NORAD ID: 16763 Int'l Des: 1986-042 Owner: UNKS Country: SU operational
LEOCIRCULAR

实时位置

正在加载3D地球...

关于 Kosmos-1753

正在加载描述...

即将过境

Passes for default location (London). Set your location on the main map for personalized predictions.

高度历史

Loading altitude history...

两行轨道根数

1 16763U 86042F 26135.19492236 -.00000020 00000-0 -24754-4 0 9996
2 16763 74.0202 45.5085 0010447 284.0139 229.5891 12.48904744820964
Epoch: May 15, 2026 • Age: 25 hours

当前状态

高度 1488.6 km
速度 7.12 km/s
星下点 71.37°N, 148.75°E
发射日期 Jun 6, 1986
运行时间 39.9 years
类型 other

技术详情

分类 Payload
质量 60.00 kg
干质量 60.00 kg
总质量 60.00 kg
长度 0.80 m
直径 0.80 m
跨度 0.80 m
形状 Poly
制造商 NPOPM
平台类型 Strela-1 11F625
阶段状态 In Orbit
所有者/国家 UNKS/SU

Most Searched